Location: Czu?�w
(50.1404°N, 18.9919°E)
Time: 01:55:22
(UTC+00:00)

NOSS 3-4 (C) - Pass Details

Date: 27 October 2020
Orbit: 886 x 1326 km, 63.4° (Epoch: 06 November)

Event Time Altitude Azimuth Distance (km) Brightness Sun altitude
Rises 17:32:23 0° 315° (NW) 3,745 7.3 -20.3°
Reaches altitude 10° 17:34:56 10° 319° (NW) 2,849 6.5 -20.7°
Maximum altitude 17:41:38 59° 39° (NE) 1,285 3.9 -21.8°
Enters shadow 17:44:15 39° 98° (E) 1,662 4.2 -22.2°
